Change the Weather History Date:

Thursday, October 11, 2012

  Actual Average (KHSV) Record (KHSV)
Temperature  
Mean Temperature 54 °F 64 °F  
Max Temperature 68 °F 76 °F 90 °F (1912)
Min Temperature 41 °F 53 °F 31 °F (2000)
Degree Days  
Heating Degree Days 10 3  
Month to date heating degree days 27  
Since 1 July heating degree days 40  
Cooling Degree Days 0 3  
Month to date cooling degree days 39  
Year to date cooling degree days 1909  
Growing Degree Days 4 (Base 50)    
Moisture  
Dew Point 47 °F    
Average Humidity 75    
Maximum Humidity 100    
Minimum Humidity 43    
Precipitation  
Precipitation 0.00 in 0.11 in 3.10 in (1902)
Month to date precipitation 1.21  
Year to date precipitation 41.25  
Snow  
Snow 0.00 in - - ()
Month to date snowfall  
Since 1 July snowfall  
Since 1 September snowfall  
Snow Depth -    
Sea Level Pressure  
Sea Level Pressure 30.26 in    
Wind  
Wind Speed 2 mph (NNE)    
Max Wind Speed 8 mph    
Max Gust Speed -    
Visibility 8 miles    
Events      
T = Trace of Precipitation, MM = Missing Value Source: NWS Daily Summary

Daily Weather History Graph

Daily Weather History Graph

Search for Another Location

Airport or City:

Trip Planner

Search our weather history database for the weather conditions in past years. The results will help you decide how hot, cold, wet, or windy it might be!

Date:

Astronomy

Oct. 11, 2012 Rise Set
Actual Time 6:46 AM CDT 6:13 PM CDT
Civil Twilight 6:21 AM CDT 6:39 PM CDT
Nautical Twilight 5:52 AM CDT 7:08 PM CDT
Astronomical Twilight 5:23 AM CDT 7:37 PM CDT
Moon 2:34 AM CDT (10/11) 3:41 PM CDT (10/11)
Length of Visible Light 12h 17m
Length of Day
11h 27m
Waning Crescent, 18% of the Moon is Illuminated
Oct 11
Waning Crescent
Oct 15
New
Oct 21
First Quarter
Oct 29
Full
Nov 6
Last Quarter

Hourly Weather History & Observations

Time (CDT) Temp. Windchill Dew Point Humidity Pressure Visibility Wind Dir Wind Speed Gust Speed Precip Events Conditions
12:15 AM 48.2 °F - 46.4 °F 93% 30.22 in 2.5 mi Calm Calm - N/A   Clear
12:35 AM 48.2 °F - 46.4 °F 93% 30.23 in 2.5 mi Calm Calm - N/A   Clear
12:55 AM 48.2 °F - 46.4 °F 93% 30.23 in 9.0 mi Calm Calm - N/A   Clear
1:15 AM 46.4 °F - 46.4 °F 100% 30.23 in 6.0 mi Calm Calm - N/A   Clear
1:35 AM 46.4 °F 45.2 °F 44.6 °F 93% 30.23 in 3.0 mi NE 3.5 mph - N/A   Clear
1:55 AM 46.4 °F - 44.6 °F 93% 30.23 in 9.0 mi Calm Calm - N/A   Clear
2:15 AM 46.4 °F - 44.6 °F 93% 30.23 in 10.0 mi Calm Calm - N/A   Clear
2:35 AM 46.4 °F - 44.6 °F 93% 30.23 in 3.0 mi Calm Calm - N/A   Clear
2:55 AM 46.4 °F - 44.6 °F 93% 30.23 in 10.0 mi Calm Calm - N/A   Clear
3:15 AM 44.6 °F 43.1 °F 42.8 °F 93% 30.24 in 7.0 mi NNE 3.5 mph - N/A   Clear
3:55 AM 44.6 °F - 42.8 °F 93% 30.24 in 8.0 mi Calm Calm - N/A   Clear
4:15 AM 44.6 °F - 44.6 °F 100% 30.24 in 4.0 mi Calm Calm - N/A   Clear
4:35 AM 44.6 °F 43.1 °F 42.8 °F 93% 30.25 in 4.0 mi NE 3.5 mph - N/A   Clear
4:55 AM 44.6 °F 43.1 °F 42.8 °F 93% 30.25 in 10.0 mi NNE 3.5 mph - N/A   Clear
5:15 AM 44.6 °F - 41.0 °F 87% 30.25 in 10.0 mi Calm Calm - N/A   Clear
5:35 AM 44.6 °F - 41.0 °F 87% 30.25 in 10.0 mi Calm Calm - N/A   Clear
5:55 AM 42.8 °F - 41.0 °F 93% 30.26 in 10.0 mi Calm Calm - N/A   Clear
6:15 AM 41.0 °F - 41.0 °F 100% 30.26 in 3.0 mi Calm Calm - N/A   Clear
6:35 AM 42.8 °F 41.1 °F 41.0 °F 93% 30.27 in 5.0 mi NE 3.5 mph - N/A   Clear
6:55 AM 44.6 °F 41.4 °F 41.0 °F 87% 30.27 in 5.0 mi North 5.8 mph - N/A   Clear
7:15 AM 44.6 °F 41.4 °F 41.0 °F 87% 30.27 in 3.0 mi NE 5.8 mph - N/A   Clear
7:55 AM 46.4 °F 43.5 °F 41.0 °F 81% 30.29 in 10.0 mi ENE 5.8 mph - N/A   Clear
8:15 AM 48.2 °F - 41.0 °F 76% 30.30 in 10.0 mi NE 6.9 mph - N/A   Clear
8:35 AM 48.2 °F - 42.8 °F 82% 30.31 in 4.0 mi ENE 6.9 mph - N/A   Haze
8:55 AM 50.0 °F - 41.0 °F 71% 30.32 in 4.0 mi NNE 5.8 mph - N/A   Haze
9:35 AM 53.6 °F - 42.8 °F 67% 30.32 in 10.0 mi NE 4.6 mph - N/A   Clear
9:55 AM 55.4 °F - 42.8 °F 63% 30.32 in 10.0 mi NE 3.5 mph - N/A   Clear
10:15 AM 55.4 °F - 44.6 °F 67% 30.32 in 10.0 mi Calm Calm - N/A   Clear
10:35 AM 57.2 °F - 44.6 °F 63% 30.31 in 10.0 mi Calm Calm - N/A   Clear
10:55 AM 57.2 °F - 44.6 °F 63% 30.31 in 10.0 mi Calm Calm - N/A   Clear
11:15 AM 60.8 °F - 46.4 °F 59% 30.30 in 10.0 mi Calm Calm - N/A   Clear
11:35 AM 62.6 °F - 46.4 °F 55% 30.30 in 10.0 mi Calm Calm - N/A   Clear
11:55 AM 64.4 °F - 46.4 °F 52% 30.29 in 10.0 mi West 4.6 mph - N/A   Clear
12:15 PM 64.4 °F - 44.6 °F 49% 30.29 in 10.0 mi SW 4.6 mph - N/A   Partly Cloudy
12:55 PM 66.2 °F - 44.6 °F 46% 30.26 in 10.0 mi SSW 3.5 mph - N/A   Mostly Cloudy
1:15 PM 68.0 °F - 46.4 °F 46% 30.25 in 10.0 mi Calm Calm - N/A   Overcast
1:35 PM 68.0 °F - 44.6 °F 43% 30.25 in 10.0 mi WSW 4.6 mph - N/A   Scattered Clouds
1:55 PM 68.0 °F - 44.6 °F 43% 30.23 in 10.0 mi South 3.5 mph - N/A   Partly Cloudy
2:15 PM 68.0 °F - 44.6 °F 43% 30.24 in 10.0 mi West 8.1 mph - N/A   Clear
3:15 PM 68.0 °F - 48.2 °F 49% 30.24 in 10.0 mi SSE 5.8 mph - N/A   Mostly Cloudy
3:55 PM 68.0 °F - 48.2 °F 49% 30.25 in 10.0 mi SW 4.6 mph - N/A   Overcast
4:15 PM 66.2 °F - 48.2 °F 52% 30.25 in 10.0 mi Calm Calm - N/A   Overcast
4:35 PM 66.2 °F - 50.0 °F 56% 30.24 in 10.0 mi SW 3.5 mph - N/A   Overcast
4:55 PM 66.2 °F - 50.0 °F 56% 30.24 in 10.0 mi SW 4.6 mph - N/A   Overcast
5:15 PM 66.2 °F - 50.0 °F 56% 30.24 in 10.0 mi Calm Calm - N/A   Overcast
5:35 PM 66.2 °F - 53.6 °F 64% 30.25 in 10.0 mi Calm Calm - N/A   Overcast
5:55 PM 64.4 °F - 51.8 °F 64% 30.25 in 10.0 mi Calm Calm - N/A   Overcast
6:35 PM 62.6 °F - 55.4 °F 77% 30.24 in 10.0 mi Calm Calm - N/A   Overcast
6:55 PM 62.6 °F - 53.6 °F 72% 30.24 in 10.0 mi Calm Calm - N/A   Overcast
7:15 PM 62.6 °F - 53.6 °F 72% 30.24 in 10.0 mi Calm Calm - N/A   Overcast
7:55 PM 59.0 °F - 53.6 °F 82% 30.24 in 10.0 mi Calm Calm - N/A   Overcast
8:15 PM 59.0 °F - 55.4 °F 88% 30.25 in 10.0 mi Calm Calm - N/A   Overcast
8:35 PM 59.0 °F - 55.4 °F 88% 30.25 in 10.0 mi Calm Calm - N/A   Overcast
9:15 PM 59.0 °F - 53.6 °F 82% 30.26 in 10.0 mi Calm Calm - N/A   Overcast
9:55 PM 59.0 °F - 55.4 °F 88% 30.26 in 10.0 mi Calm Calm - N/A   Overcast
10:15 PM 59.0 °F - 55.4 °F 88% 30.26 in 10.0 mi Calm Calm - N/A   Overcast
10:55 PM 62.6 °F - 53.6 °F 72% 30.26 in 10.0 mi Calm Calm - N/A   Overcast
11:55 PM 59.0 °F - 55.4 °F 88% 30.25 in 10.0 mi Calm Calm - N/A   Overcast